Regional Weather Roundup
Issued by NWS Newport/Morehead, NC

Current Version | Previous Version | Text Only | Print | Product List | Glossary On
Versions: 1 2 3 4 5 6 7 8 9 10 11 12 13 14 15 16 17 18 19 20 21 22 23 24 25 26 27 28 29 30 31 32 33 34 35 36 37 38 39 40 41 42 43 44 45 46 47 48 49 50
000
ASUS42 KMHX 282313
RWRMHX
WEATHER ROUNDUP FOR EASTERN NORTH CAROLINA
NATIONAL WEATHER SERVICE NEWPORT/MOREHEAD CITY NC
700 PM EDT THU JUL 28 2016

NOTE: "FAIR" INDICATES FEW OR NO CLOUDS BELOW 12,000 FEET
WITH NO SIGNIFICANT WEATHER AND/OR OBSTRUCTIONS TO VISIBILITY

NCZ015>017-031-032-045>047-102-103-290000-
NORTH COAST

CITY           SKY/WX    TMP DP  RH WIND       PRES   REMARKS
EDENTON        SUNNY     95  73  49 S10       29.82S HX 103
ELIZABETH CITY SUNNY     93  76  57 S7G17     29.81S HX 105
KITTY HAWK     PTCLDY    94  78  59 S5        29.83R HX 111
MANTEO           N/A     93  77  59 SW16      29.84S HX 107

$$

NCZ045>047-081-094-103-104-290000-
CENTRAL COAST

CITY           SKY/WX    TMP DP  RH WIND       PRES   REMARKS
FRISCO         SUNNY     86  80  82 SW12G18   29.87R HX 101

$$

NCZ095-097-098-100-101-290000-
SOUTHERN COAST

CITY           SKY/WX    TMP DP  RH WIND       PRES   REMARKS
BEAUFORT       SUNNY     86  78  77 SW16      29.87F
CEDAR ISLAND   NOT AVBL
JACKSONVILLE   SUNNY     93  72  50 SW8       29.86S HX 101
PINEY ISLAND   NOT AVBL
WILMINGTON     SUNNY     90  74  59 SW14      29.88S


$$

NCZ011>013-027>030-043-044-078>080-089-090>093-098-290000-
COASTAL PLAIN

CITY           SKY/WX    TMP DP  RH WIND       PRES   REMARKS
AHOSKIE        SUNNY     87  78  73 CALM      29.81S HX 100
CLINTON        SUNNY     94  73  49 SW9       29.87R HX 103
ELIZABETHTOWN  SUNNY     95  70  44 SW9G16    29.87F HX 101
GOLDSBORO      SUNNY     96  70  42 SW17      29.82  HX 103
GREENVILLE     SUNNY     95  73  49 SW8       29.85S HX 105
HAVELOCK       SUNNY     89  75  63 S13       29.87S
KENANSVILLE    NOT AVBL
KINSTON        SUNNY     95  70  43 SW7G16    29.84S HX 101
NEW BERN       SUNNY     92  75  57 S8        29.86S HX 103
RICHLANDS      SUNNY     94  71  47 SW10G17   29.87R HX 101
ROCKY MOUNT    SUNNY     93  74  53 S9G17     29.82S HX 103
WASHINGTON     SUNNY     92  74  54 S8        29.82S HX 102
WHITEVILLE     SUNNY     94  71  47 SW7       29.88S HX 100

$$

AMZ130-135-150-152-154-156-158-170-250-252-270-ANZ085-086-088-633-658-670-290000-
MARINE OBSERVATIONS

STATION/POSITION TIME  TEMP    WIND        PRES    WAVE   SWELL
                       AIR SEA DIR/SP/G            HT/PER HT/PER
                 (UTC) (F)     (DEG/KT/KT) (MB)    (FT/S) (FT/S)
CHESAPEAKE LIGHT NOT AVBL
64 E VA BEACH    2250   84 83  170/ 10/ 12 1010.2    2/ 7   2/ 7
DUCK             2200      72  210/ 13/ 17 1009.0
2 E DUCK         2211      80                N/A     1/ 8
OREGON INLET     2200      85  190/ 11/ 12 1010.6
13E OREGON INLT  2300      84                N/A     2/ 3   2/ 8
HATTERAS CG      2200      84  210/ 10/ 15 1010.9
DIAMOND BUOY     2250   87 86  220/ 16/ 17 1011.4    3/ 3   2/ 6
CAPE LOOKOUT     2300   86     220/ 12/ 15 1011.4
BEAUFORT LAB     2200      83  210/ 13/ 17 1011.1
30 SE NEW RVR IN 2208   87 85  220/ 17/ 21 1012.1
30 SE NEW RVR IN 2225      85                N/A     4/ 6
27 SE WRIGHTSVLE 2208   86 85  210/ 16/ 21 1012.6
5 SE WRIGHTSVLE  NOT AVBL
225 S CAPE HAT   2250   84 85  220/ 10/ 12 1015.3    4/ 6   3/ 6
41 SE CHARLESTON 2150   87 86  210/ 16/ 17 1013.6    3/ 5   2/ 8

$$




USA.gov is the U.S. government's official web portal to all federal, state and local government web resources and services.